Orbital Elements at Epoch 2459200.5 (2020-Dec-17.0) TDB
Reference: JPL 19 (heliocentric ecliptic J2000)
Element | Value | Uncertainty (1-sigma) | Units |
e | .07645621995588639 | 4.0928e-08 | |
a | 2.309518961774773 | 9.1977e-09 | au |
q | 2.132941872041031 | 9.3046e-08 | au |
i | 7.601075847007152 | 6.1962e-06 | deg |
node | 47.0487051960427 | 3.3781e-05 | deg |
peri | 209.4862392253604 | 5.4772e-05 | deg |
M | 126.6625607097801 | 4.2917e-05 | deg |
tp | 2458749.448129331949 (2019-Sep-22.94812933) | 0.00015285 | TDB |
period | 1281.978451490128 3.51 | 7.6582e-06 2.097e-08 | d yr |
n | .2808159525470559 | 1.6775e-09 | deg/d |
Q | 2.486096051508516 | 9.9009e-09 | au |
|
| | Orbit Determination Parameters
Additional Information
|